Date String (YYYY-MM-DD hh:mm:ss) UTC,Instrument flags,Ambient pressure (hPa),Sample flow (lpm),Bypass flow (lpm),Sample temperature (°C),Ambient temperature (°C),ASC tube jacket temperature (°C),LED temperature (°C),Box temperature (°C),Sample RH (%),Span deviation,Mass concentration (μg/m³),Mass concentration (μg/m³),Mass concentration (μg/m³)
DateTimeUTC,F1_M11,P_M11,Q1_M11,Q2_M11,T1_M11,T2_M11,T3_M11,T4_M11,T5_M11,U1_M11,ZSPAN_M11,X0_M11,X2_M11,X1_M11
2023-05-18 23:00:00,,0831.7,5.01,0.00,29.5,27.9,00.0,37.9,31.0,25.7,0000.0,0006.87,0003.37,0002.55
2023-05-18 23:01:00,,0831.7,4.98,0.00,29.5,27.9,00.0,37.9,31.0,26.0,0000.0,0007.26,0003.41,0002.62
2023-05-18 23:02:00,,0831.9,5.01,0.00,29.5,27.9,00.0,37.9,31.0,26.3,0000.0,0007.29,0003.42,0002.66
2023-05-18 23:03:00,,0832.1,4.99,0.00,29.5,27.9,00.0,37.9,31.0,26.3,0000.0,0007.37,0003.46,0002.74
2023-05-18 23:04:00,,0831.8,5.01,0.00,29.5,27.9,00.0,37.9,31.0,26.5,0000.0,0007.34,0003.48,0002.78
2023-05-18 23:05:00,,0831.9,5.00,0.00,29.5,27.8,00.0,37.9,31.0,26.7,0000.0,0007.34,0003.49,0002.82
2023-05-18 23:06:00,,0831.9,5.01,0.00,29.4,27.8,00.0,37.9,31.0,26.8,0000.0,0007.17,0003.46,0002.86
2023-05-18 23:07:00,,0832.0,5.00,0.00,29.4,27.8,00.0,37.9,31.0,26.8,0000.0,0006.75,0003.43,0002.88
2023-05-18 23:08:00,,0832.0,4.99,0.00,29.4,27.8,00.0,37.9,31.0,26.7,0000.0,0006.68,0003.47,0002.91
2023-05-18 23:09:00,,0832.1,5.00,0.00,29.4,27.8,00.0,37.9,31.0,27.3,0000.0,0006.63,0003.48,0002.93
2023-05-18 23:10:00,,0832.1,5.01,0.00,29.4,27.8,00.0,37.9,31.0,27.6,0000.0,0006.57,0003.47,0002.93
2023-05-18 23:11:00,,0832.2,5.01,0.00,29.4,27.8,00.0,37.9,31.0,28.2,0000.0,0006.58,0003.51,0002.94
2023-05-18 23:12:00,,0832.2,5.00,0.00,29.4,27.9,00.0,37.9,31.1,27.9,0000.0,0006.13,0003.50,0002.94
2023-05-18 23:13:00,,0832.2,4.99,0.00,29.5,27.9,00.0,37.9,31.1,28.1,0000.0,0006.08,0003.50,0002.94
2023-05-18 23:14:00,,0832.2,5.00,0.00,29.5,27.9,00.0,37.9,31.1,28.1,0000.0,0006.21,0003.50,0002.93
2023-05-18 23:15:00,,0832.2,5.01,0.00,29.5,28.0,00.0,37.9,31.1,28.2,0000.0,0006.31,0003.51,0002.94
2023-05-18 23:16:00,,0832.2,5.00,0.00,29.5,28.0,00.0,37.9,31.1,28.3,0000.0,0006.62,0003.53,0002.96
2023-05-18 23:17:00,,0832.2,4.99,0.00,29.5,28.0,00.0,37.9,31.1,28.6,0000.0,0006.73,0003.56,0002.96
2023-05-18 23:18:00,,0832.2,5.01,0.00,29.5,28.0,00.0,37.9,31.1,28.8,0000.0,0006.80,0003.58,0002.97
2023-05-18 23:19:00,,0832.3,5.00,0.00,29.5,28.1,00.0,37.9,31.2,28.9,0000.0,0006.64,0003.54,0002.95
2023-05-18 23:20:00,,0832.3,5.00,0.00,29.5,28.1,00.0,37.9,31.2,28.6,0000.0,0006.47,0003.50,0002.93
2023-05-18 23:21:00,,0832.3,5.00,0.00,29.6,28.1,00.0,37.9,31.2,28.1,0000.0,0006.44,0003.49,0002.93
2023-05-18 23:22:00,,0832.3,4.99,0.00,29.6,28.1,00.0,37.9,31.2,27.8,0000.0,0006.36,0003.48,0002.94
2023-05-18 23:23:00,,0832.3,5.00,0.00,29.6,28.2,00.0,37.9,31.2,27.7,0000.0,0006.18,0003.49,0002.94
2023-05-18 23:24:00,,0832.3,5.01,0.00,29.6,28.2,00.0,37.9,31.2,27.5,0000.0,0006.32,0003.52,0002.95
2023-05-18 23:25:00,,0832.3,4.98,0.00,29.6,28.2,00.0,37.9,31.2,27.5,0000.0,0006.27,0003.53,0002.97
2023-05-18 23:26:00,,0832.4,5.00,0.00,29.6,28.2,00.0,38.0,31.2,27.5,0000.0,0006.27,0003.57,0002.97
2023-05-18 23:27:00,,0832.5,5.02,0.00,29.6,28.2,00.0,38.0,31.3,27.7,0000.0,0006.32,0003.61,0002.98
2023-05-18 23:28:00,,0832.5,4.98,0.00,29.6,28.2,00.0,38.0,31.2,27.6,0000.0,0006.32,0003.61,0002.98
2023-05-18 23:29:00,,0832.7,5.00,0.00,29.6,28.2,00.0,38.0,31.2,27.5,0000.0,0006.47,0003.59,0002.96
2023-05-18 23:30:00,,0832.6,5.01,0.00,29.6,28.2,00.0,38.0,31.2,27.7,0000.0,0006.56,0003.56,0002.92
2023-05-18 23:31:00,,0832.7,5.00,0.00,29.6,28.2,00.0,38.0,31.2,27.7,0000.0,0006.67,0003.58,0002.89
2023-05-18 23:32:00,,0832.7,4.98,0.00,29.6,28.1,00.0,38.0,31.2,27.6,0000.0,0006.87,0003.62,0002.88
2023-05-18 23:33:00,,0832.7,5.00,0.00,29.6,28.1,00.0,38.0,31.2,27.7,0000.0,0007.09,0003.65,0002.87
2023-05-18 23:34:00,,0832.7,5.01,0.00,29.6,28.1,00.0,38.0,31.2,27.5,0000.0,0007.42,0003.72,0002.85
2023-05-18 23:35:00,,0832.7,4.99,0.00,29.6,28.1,00.0,38.0,31.2,27.5,0000.0,0007.56,0003.76,0002.86
2023-05-18 23:36:00,,0832.7,5.01,0.00,29.6,28.1,00.0,38.0,31.2,27.1,0000.0,0007.66,0003.77,0002.87
2023-05-18 23:37:00,,0832.7,5.01,0.00,29.6,28.1,00.0,38.0,31.2,26.9,0000.0,0007.73,0003.78,0002.87
2023-05-18 23:38:00,,0832.7,4.98,0.00,29.6,28.1,00.0,38.0,31.2,26.7,0000.0,0007.83,0003.82,0002.89
2023-05-18 23:39:00,,0832.7,5.00,0.00,29.6,28.1,00.0,38.0,31.2,26.6,0000.0,0007.86,0003.85,0002.94
2023-05-18 23:40:00,,0832.7,5.01,0.00,29.6,28.1,00.0,38.0,31.2,26.6,0000.0,0007.96,0003.92,0003.02
2023-05-18 23:41:00,,0832.7,5.00,0.00,29.6,28.1,00.0,38.0,31.2,26.7,0000.0,0008.38,0004.03,0003.09
2023-05-18 23:42:00,,0832.7,4.99,0.00,29.6,28.1,00.0,38.0,31.2,26.8,0000.0,0008.79,0004.12,0003.14
2023-05-18 23:43:00,,0832.7,5.01,0.00,29.6,28.1,00.0,38.0,31.2,27.2,0000.0,0009.08,0004.21,0003.19
2023-05-18 23:44:00,,0832.8,5.01,0.00,29.6,28.1,00.0,38.0,31.2,27.1,0000.0,0009.17,0004.28,0003.25
2023-05-18 23:45:00,,0832.8,4.99,0.00,29.6,28.1,00.0,38.0,31.2,27.1,0000.0,0009.67,0004.35,0003.32
2023-05-18 23:46:00,,0832.8,4.99,0.00,29.7,28.1,00.0,38.0,31.2,27.3,0000.0,0009.68,0004.39,0003.38
2023-05-18 23:47:00,,0832.8,5.00,0.00,29.6,28.1,00.0,38.0,31.2,27.2,0000.0,0009.70,0004.44,0003.44
2023-05-18 23:48:00,,0832.8,5.00,0.00,29.7,28.1,00.0,38.0,31.2,27.3,0000.0,0010.05,0004.52,0003.50
2023-05-18 23:49:00,,0832.8,4.99,0.00,29.7,28.1,00.0,38.0,31.2,27.4,0000.0,0010.20,0004.57,0003.55
2023-05-18 23:50:00,,0832.8,4.99,0.00,29.7,28.1,00.0,38.0,31.2,27.5,0000.0,0010.33,0004.64,0003.59
2023-05-18 23:51:00,,0832.9,5.00,0.00,29.7,28.1,00.0,38.0,31.2,27.4,0000.0,0010.62,0004.76,0003.66
2023-05-18 23:52:00,,0833.1,5.01,0.00,29.6,28.1,00.0,38.0,31.2,27.2,0000.0,0010.36,0004.82,0003.74
2023-05-18 23:53:00,,0833.1,4.99,0.00,29.6,28.1,00.0,38.0,31.2,27.1,0000.0,0010.33,0004.92,0003.82
2023-05-18 23:54:00,,0833.4,5.00,0.00,29.6,28.1,00.0,38.0,31.2,27.1,0000.0,0010.23,0004.97,0003.88
2023-05-18 23:55:00,,0833.3,5.01,0.00,29.6,28.1,00.0,38.0,31.2,27.1,0000.0,0010.26,0004.98,0003.91
2023-05-18 23:56:00,,0833.2,5.01,0.00,29.6,28.0,00.0,38.0,31.2,27.3,0000.0,0009.87,0004.99,0003.95
2023-05-18 23:57:00,,0833.3,4.99,0.00,29.6,28.1,00.0,38.0,31.2,27.2,0000.0,0009.63,0004.97,0003.98
2023-05-18 23:58:00,,0832.9,5.00,0.00,29.6,28.1,00.0,38.0,31.2,27.2,0000.0,0009.68,0005.01,0004.01
2023-05-18 23:59:00,,0833.2,5.00,0.00,29.6,28.1,00.0,38.0,31.2,27.0,0000.0,0009.51,0005.10,0004.09
